[[{"header":{"parameterUnit":"m.s-1","parameterCategory":1,"la1":30.2992,"la2":30.254,"lo1":-89.0895,"lo2":-89.0443,"dy":0.0025,"dx":0.0025,"nx":19,"ny":19,"refTime":"2026-03-17T21:00:00:Z","depth":0,"parameterNumber":2,"parameterNumberName":"U-component_of_WINDS"},"data":[0,0,0,-2.3588,-2.3592,-2.3753,-2.3754,-2.3955,-2.3957,0,0,0,0,0,0,0,0,0,0,0,-2.3539,-2.354,-2.3588,-2.3592,-2.3753,-2.3754,-2.3955,-2.3957,0,0,0,0,0,0,0,0,0,0,0,-2.3539,-2.354,-2.3542,-2.3593,-2.3753,-2.3754,-2.3955,-2.3834,0,0,0,0,0,0,0,0,0,0,-2.3678,-2.3632,-2.354,-2.3542,-2.3594,-2.3753,-2.3754,-2.3829,-2.3842,-2.3881,0,-2.3916,0,-2.394,-2.397,-2.3971,0,0,0,-2.3593,-2.3621,-2.3666,-2.3542,-2.3595,-2.3753,-2.3681,-2.3836,-2.3851,-2.3898,-2.3919,-2.3926,-2.3943,-2.3972,-2.3973,-2.4195,-2.4196,0,0,-2.3584,-2.3567,-2.3655,-2.3675,-2.3652,-2.3676,-2.3686,-2.3845,-2.3866,-2.392,-2.3931,-2.3946,-2.3973,-2.3975,-2.4194,-2.4195,0,0,0,-2.3558,-2.3561,-2.3602,-2.3667,-2.3696,-2.368,-2.3692,-2.3859,-2.3874,-2.3933,-2.3949,-2.3974,-2.3977,-2.4193,-2.4194,-2.4226,0,0,0,-2.3553,-2.3546,-2.3598,-2.3589,-2.3693,-2.378,-2.3702,-2.3863,-2.3881,-2.3948,-2.3974,-2.3979,-2.4192,-2.4194,-2.4223,-2.4244,0,0,0,-2.3529,-2.3543,-2.3566,-2.3588,-2.3657,-2.3778,-2.3802,-2.3867,-2.3891,-2.3971,-2.3979,-2.4191,-2.4193,-2.4221,-2.424,-2.4297,0,0,0,-2.3499,-2.3593,-2.3566,-2.3677,-2.3655,-2.3797,-2.3801,-2.3908,-2.398,-2.3975,-2.4192,-2.4194,-2.422,-2.4237,-2.4293,-2.4341,-2.4359,0,0,-2.3608,-2.3606,-2.3672,-2.3653,-2.3795,-2.3774,-2.392,-2.4003,-2.4026,-2.4137,-2.4143,-2.4224,-2.4239,-2.4296,-2.447,-2.4485,0,0,0,-2.3701,-2.3748,-2.3789,-2.3858,-2.3923,-2.398,-2.4043,-2.4073,-2.4168,-2.408,-2.4261,-2.4271,-2.4305,-2.4328,-2.434,-2.437,-2.4205,-2.4204,-2.4204,-2.3831,-2.3855,-2.3966,-2.4008,-2.4075,-2.4137,-2.4192,-2.4243,-2.4249,-2.4291,-2.4324,-2.4427,-2.4454,-2.4463,-2.4493,-2.4352,-2.4352,-2.4352,-2.4352,-2.3992,-2.4062,-2.4066,-2.4174,-2.4198,-2.4289,-2.4352,-2.4352,-2.4439,-2.4405,-2.4436,-2.4394,-2.4478,-2.4506,-2.4355,-2.4354,-2.4354,-2.4354,-2.4354,-2.4079,-2.4117,-2.4152,-2.4252,-2.4326,-2.4366,-2.4449,-2.4468,-2.4487,-2.4517,-2.4553,-2.4552,-2.4553,-2.4533,-2.4533,-2.4534,-2.4534,-2.4534,-2.4535,-2.4155,-2.4194,-2.4262,-2.4337,-2.4383,-2.4445,-2.4507,-2.4552,-2.4606,-2.4613,-2.4614,-2.4613,-2.4483,-2.4448,-2.454,-2.4539,-2.4539,-2.4538,-2.4538,-2.4308,-2.4276,-2.4381,-2.4426,-2.4515,-2.4586,-2.461,-2.4699,-2.4739,-2.4778,-2.4772,-2.4672,-2.4671,-2.4661,-2.4633,-2.4767,-2.4767,-2.4767,-2.4767,-2.4381,-2.4382,-2.4492,-2.4563,-2.4634,-2.4665,-2.4781,-2.4829,-2.4873,-2.4899,-2.4883,-2.4847,-2.4836,-2.4841,-2.4828,-2.4802,-2.4976,-2.4976,-2.4976,-2.4475,-2.4483,-2.4579,-2.4622,-2.4693,-2.4752,-2.4861,-2.4941,-2.4985,-2.4985,-2.4919,-2.491,-2.4853,-2.4834,-2.4832,-2.4811,-2.4763,0,0]},{"header":{"parameterUnit":"m.s-1","parameterCategory":1,"la1":30.2992,"la2":30.254,"lo1":-89.0895,"lo2":-89.0443,"dy":0.0025,"dx":0.0025,"nx":19,"ny":19,"refTime":"2026-03-17T21:00:00:Z","depth":0,"parameterNumber":3,"parameterNumberName":"V-component_of_WINDS"},"data":[0,0,0,-2.4742,-2.4744,-2.4831,-2.4831,-2.4944,-2.4945,0,0,0,0,0,0,0,0,0,0,0,-2.4718,-2.4719,-2.4742,-2.4744,-2.4831,-2.4831,-2.4944,-2.4945,0,0,0,0,0,0,0,0,0,0,0,-2.4717,-2.4718,-2.4719,-2.4744,-2.483,-2.4831,-2.4944,-2.4878,0,0,0,0,0,0,0,0,0,0,-2.4793,-2.4772,-2.4718,-2.4719,-2.4745,-2.483,-2.4831,-2.4874,-2.4882,-2.4906,0,-2.4928,0,-2.4938,-2.4953,-2.4953,0,0,0,-2.4743,-2.4766,-2.4788,-2.472,-2.4746,-2.483,-2.4791,-2.4878,-2.4887,-2.4916,-2.493,-2.4934,-2.494,-2.4954,-2.4954,-2.5097,-2.5097,0,0,-2.4738,-2.4734,-2.4782,-2.4793,-2.478,-2.4788,-2.4794,-2.4883,-2.4898,-2.493,-2.4936,-2.4942,-2.4955,-2.4955,-2.5096,-2.5097,0,0,0,-2.4725,-2.4731,-2.4751,-2.4789,-2.4804,-2.4791,-2.4797,-2.4894,-2.4901,-2.4938,-2.4944,-2.4955,-2.4957,-2.5095,-2.5096,-2.5126,0,0,0,-2.4722,-2.4723,-2.4749,-2.4747,-2.4803,-2.485,-2.4806,-2.4895,-2.4905,-2.4943,-2.4955,-2.4958,-2.5095,-2.5096,-2.5124,-2.5141,0,0,0,-2.4712,-2.4722,-2.4735,-2.4747,-2.4784,-2.4849,-2.4861,-2.4897,-2.4909,-2.4954,-2.4958,-2.5094,-2.5096,-2.5121,-2.5137,-2.5176,0,0,0,-2.4699,-2.4761,-2.4735,-2.4807,-2.4783,-2.4867,-2.486,-2.4923,-2.4965,-2.4956,-2.5095,-2.5096,-2.5121,-2.5135,-2.5173,-2.5206,-2.522,0,0,-2.4775,-2.477,-2.4813,-2.4792,-2.488,-2.4854,-2.4946,-2.4989,-2.4998,-2.5063,-2.5067,-2.5124,-2.5137,-2.5175,-2.5301,-2.5312,0,0,0,-2.4836,-2.4866,-2.489,-2.4929,-2.4963,-2.4993,-2.5022,-2.5038,-2.5094,-2.503,-2.515,-2.5157,-2.518,-2.5196,-2.5205,-2.5224,-2.5104,-2.5104,-2.5104,-2.4937,-2.4944,-2.5014,-2.5031,-2.507,-2.5099,-2.513,-2.5156,-2.5153,-2.5181,-2.52,-2.5276,-2.5294,-2.5301,-2.5321,-2.5219,-2.522,-2.522,-2.522,-2.5047,-2.509,-2.5084,-2.5149,-2.5156,-2.5212,-2.5242,-2.5238,-2.529,-2.5262,-2.5283,-2.525,-2.5313,-2.533,-2.5222,-2.5222,-2.5221,-2.5221,-2.5221,-2.5113,-2.5134,-2.5152,-2.5209,-2.5253,-2.5269,-2.5319,-2.5324,-2.533,-2.535,-2.5369,-2.5369,-2.5368,-2.5359,-2.5359,-2.536,-2.536,-2.536,-2.536,-2.5173,-2.5192,-2.5233,-2.5274,-2.5299,-2.5334,-2.5364,-2.5389,-2.5418,-2.5418,-2.5418,-2.5411,-2.5318,-2.5294,-2.5364,-2.5364,-2.5363,-2.5363,-2.5362,-2.5279,-2.5256,-2.5319,-2.5345,-2.5393,-2.5435,-2.5441,-2.5492,-2.5514,-2.5539,-2.5528,-2.5459,-2.5454,-2.5447,-2.5426,-2.5527,-2.5527,-2.5527,-2.5527,-2.5333,-2.5331,-2.5397,-2.5437,-2.5477,-2.5489,-2.556,-2.5584,-2.5606,-2.562,-2.5606,-2.558,-2.5573,-2.5573,-2.5563,-2.5543,-2.5672,-2.5672,-2.5672,-2.5398,-2.54,-2.5459,-2.5479,-2.5517,-2.5549,-2.5616,-2.5663,-2.5683,-2.5678,-2.563,-2.5624,-2.5582,-2.5569,-2.5561,-2.5546,-2.5511,0,0]}]]